Regional Weather Roundup
Issued by NWS

Home | Current Version | Previous Version | Text Only | Print | Product List | Glossary Off
Versions: 1 2 3 4 5 6 7 8 9 10 11 12 13 14 15 16 17 18 19 20 21 22 23 24 25 26 27 28 29 30 31 32 33 34 35 36 37 38 39 40 41 42 43 44 45 46 47 48 49 50

000
ASUS43 KIND 030759
RWRIN

WEATHER ROUNDUP FOR INDIANA
NATIONAL WEATHER SERVICE INDIANAPOLIS IN
400 AM EDT SUN MAY 03 2015

NOTE: "FAIR" INDICATES FEW OR NO CLOUDS BELOW 12,000 FEET WITH NO
SIGNIFICANT WEATHER AND/OR OBSTRUCTIONS TO VISIBILITY.

* - STATION DOES NOT REPORT WEATHER SUCH AS PRECIPITATION OR FOG.

+ - STATION NOT QUALITY CONTROLLED BY THE NATIONAL WEATHER SERVICE.
    USE DATA WITH CAUTION...ESPECIALLY DEWPOINT AND RELATIVE
    HUMIDITY OBSERVATIONS.

INZ001>003-010>013-019-020-030900-
NORTHWEST INDIANA

CITY           SKY/WX    TMP DP  RH WIND       PRES   REMARKS

$$

LMZ046-743>745-030900-
SOUTHERN LAKE MICHIGAN

STATION/POSITION TIME  TEMP    WIND        PRES    WAVE
                       AIR SEA DIR/SP/G            HT
                 (UTC) (F)     (DEG/KT/KT) (MB)    (FT)
BURNS HARBOR     0700   59     180/  9/ 11 1015.9F
MICHIGAN CITY    0700   63     170/ 13/ 17   N/A
5NW MICH CITY    0700   57 51  210/  6/  8   N/A     1

$$

INZ004-005-014>016-021>024-030900-
NORTH CENTRAL INDIANA

CITY           SKY/WX    TMP DP  RH WIND       PRES   REMARKS
GOSHEN         PTCLDY    55  41  59 SW7       30.02S
SOUTH BEND     PTCLDY    56  39  53 SW7       30.02S

$$

INZ006>009-017-018-025>027-030900-
NORTHEAST INDIANA

CITY           SKY/WX    TMP DP  RH WIND       PRES   REMARKS
ANGOLA *+      CLEAR     48  45  87 CALM      30.03S
FORT WAYNE     MOCLDY    51  43  74 S3        30.04S

$$

INZ028-029-035-036-043>045-051>053-030900-
WEST CENTRAL INDIANA

CITY           SKY/WX    TMP DP  RH WIND       PRES   REMARKS
CRAWFORDSVL +  MOCLDY    49  41  74 CALM      30.04S
GREENCASTLE +  CLOUDY    52  41  66 CALM      30.06R
LAFAYETTE      MOCLDY    52  42  69 CALM      30.03S
TERRE HAUTE    CLOUDY    55  46  71 S3        30.05R

$$

INZ030>032-037>040-046>048-054>057-064-065-030900-
CENTRAL INDIANA

CITY           SKY/WX    TMP DP  RH WIND       PRES   REMARKS
GREENWOOD *+   MOCLDY    54  43  66 CALM      30.06S
INDIANAPOLIS   CLOUDY    56  43  61 S3        30.04R
-EAGLE CREEK   CLOUDY    53  46  77 CALM      30.05R
MT COMFORT *+  MOCLDY    50  41  71 S5        30.06S
SHELBYVILLE    PTCLDY    52  45  77 SE6       30.05S

$$

INZ033-034-041-042-049-050-058-059-030900-
EAST CENTRAL INDIANA

CITY           SKY/WX    TMP DP  RH WIND       PRES   REMARKS
MUNCIE         MOCLDY    56  44  64 S5        30.05S

$$

INZ060-061-067>069-081>083-085>088-030900-
SOUTHWEST INDIANA

CITY           SKY/WX    TMP DP  RH WIND       PRES   REMARKS
EVANSVILLE     PTCLDY    54  49  83 CALM      30.06R
HUNTINGBURG *+ PTCLDY    52  46  82 SE5       30.06S

$$

INZ062-063-066-070>080-084-089>092-030900-
SOUTH CENTRAL AND SOUTHEAST INDIANA

CITY           SKY/WX    TMP DP  RH WIND       PRES   REMARKS
BLOOMINGTON    MOCLDY    50  46  86 CALM      30.06R
MADISON *+     CLEAR     50  45  81 CALM      30.09S
SEYMOUR +      PTCLDY    50  50 100 CALM      30.06S

$$




USA.gov is the U.S. government's official web portal to all federal, state and local government web resources and services.